FW6147 Weather Reports


time (UTC)temp
C
wind
direction
speed
KPH
gust
KPH
rain 1hr
cm
rain 24hr
cm
rain mn
cm
humidity
%
barometer
mb
20260504234558 23 300 11.3 29.0 0.00 0.00 0.00 26 1016.4
20260504234054 23 279 12.9 29.0 0.00 0.00 0.00 26 1016.4
20260504233554 23 272 11.3 29.0 0.00 0.00 0.00 26 1016.4
20260504233111 23 276 9.7 29.0 0.00 0.00 0.00 26 1016.3
20260504232552 23 0 14.5 32.2 0.00 0.00 0.00 25 1016.1
20260504232054 23 250 17.7 32.2 0.00 0.00 0.00 23 1016.2
20260504231600 23 270 16.1 30.6 0.00 0.00 0.00 21 1016.0
20260504231053 24 246 8.0 22.5 0.00 0.00 0.00 20 1016.0
20260504230553 23 0 3.2 29.0 0.00 0.00 0.00 20 1016.1
20260504230058 23 288 11.3 29.0 0.00 0.00 0.00 19 1015.9
20260504225556 23 280 16.1 29.0 0.00 0.00 0.00 18 1015.7
20260504225055 24 307 16.1 29.0 0.00 0.00 0.00 18 1015.9
20260504224556 24 298 16.1 27.4 0.00 0.00 0.00 18 1015.9
20260504224051 24 297 16.1 27.4 0.00 0.00 0.00 19 1016.0
20260504223554 24 322 8.0 25.7 0.00 0.00 0.00 18 1016.3
20260504223055 24 277 9.7 32.2 0.00 0.00 0.00 20 1016.4
20260504222556 24 262 12.9 32.2 0.00 0.00 0.00 19 1016.5
20260504222053 25 338 12.9 25.7 0.00 0.00 0.00 18 1016.3
20260504221555 25 237 9.7 25.7 0.00 0.00 0.00 19 1016.4
20260504221053 25 288 6.4 29.0 0.00 0.00 0.00 20 1016.2
20260504220551 25 295 8.0 29.0 0.00 0.00 0.00 20 1016.2
20260504220057 25 0 14.5 29.0 0.00 0.00 0.00 20 1016.0
20260504215554 26 248 6.4 16.1 0.00 0.00 0.00 19 1016.2
20260504215052 26 296 3.2 17.7 0.00 0.00 0.00 19 1016.2
20260504214606 25 269 3.2 20.9 0.00 0.00 0.00 19 1016.4
20260504214054 25 293 4.8 20.9 0.00 0.00 0.00 18 1016.4
20260504213553 26 243 8.0 20.9 0.00 0.00 0.00 17 1016.3
20260504213058 26 272 6.4 19.3 0.00 0.00 0.00 18 1016.4
20260504212555 26 221 8.0 19.3 0.00 0.00 0.00 17 1016.3
20260504212052 26 214 8.0 20.9 0.00 0.00 0.00 17 1016.3
20260504211600 26 240 8.0 20.9 0.00 0.00 0.00 16 1016.3
20260504211052 26 253 8.0 20.9 0.00 0.00 0.00 15 1016.5
20260504210557 26 257 6.4 20.9 0.00 0.00 0.00 15 1016.5
20260504210059 26 248 8.0 19.3 0.00 0.00 0.00 15 1016.5
20260504205556 26 230 8.0 17.7 0.00 0.00 0.00 14 1016.5
20260504205054 26 0 4.8 17.7 0.00 0.00 0.00 13 1016.3
20260504204615 26 272 4.8 16.1 0.00 0.00 0.00 13 1016.6
20260504204054 26 267 3.2 16.1 0.00 0.00 0.00 15 1016.6
20260504203553 26 228 0.0 14.5 0.00 0.00 0.00 16 1016.6
20260504203106 26 0 3.2 14.5 0.00 0.00 0.00 17 1016.6
20260504202555 26 233 0.0 14.5 0.00 0.00 0.00 17 1016.6
20260504202055 26 266 1.6 20.9 0.00 0.00 0.00 18 1016.8
20260504201555 26 0 8.0 20.9 0.00 0.00 0.00 18 1016.8
20260504201053 26 242 4.8 17.7 0.00 0.00 0.00 18 1016.8
20260504200554 26 251 6.4 19.3 0.00 0.00 0.00 18 1017.0
20260504200109 26 202 4.8 19.3 0.00 0.00 0.00 19 1016.8
20260504195550 26 0 4.8 14.5 0.00 0.00 0.00 18 1017.0
20260504195050 26 259 1.6 12.9 0.00 0.00 0.00 18 1016.9
20260504194603 26 0 0.0 12.9 0.00 0.00 0.00 18 1017.1
20260504194057 25 0 1.6 12.9 0.00 0.00 0.00 19 1017.1
20260504193556 25 0 4.8 25.7 0.00 0.00 0.00 18 1017.1
20260504193057 26 0 4.8 25.7 0.00 0.00 0.00 17 1017.2
20260504192555 26 0 0.0 19.3 0.00 0.00 0.00 18 1017.3
20260504192055 26 271 6.4 24.1 0.00 0.00 0.00 16 1017.3
20260504191615 26 267 1.6 24.1 0.00 0.00 0.00 16 1017.4
20260504191052 26 232 0.0 16.1 0.00 0.00 0.00 17 1017.4
20260504190556 25 251 1.6 16.1 0.00 0.00 0.00 19 1017.4
20260504190053 25 258 8.0 14.5 0.00 0.00 0.00 17 1017.5
20260504185552 25 248 3.2 14.5 0.00 0.00 0.00 16 1017.5
20260504185052 25 0 0.0 8.0 0.00 0.00 0.00 20 1017.6
20260504184556 25 0 0.0 8.0 0.00 0.00 0.00 19 1017.7
20260504184056 25 254 0.0 16.1 0.00 0.00 0.00 20 1017.8
20260504183554 25 0 3.2 17.7 0.00 0.00 0.00 22 1017.8
20260504183056 25 0 6.4 17.7 0.00 0.00 0.00 20 1017.8
20260504182557 24 0 6.4 17.7 0.00 0.00 0.00 20 1017.9
20260504182058 24 0 1.6 12.9 0.00 0.00 0.00 21 1018.0
20260504181603 24 134 1.6 8.0 0.00 0.00 0.00 22 1018.0
20260504181057 24 0 0.0 11.3 0.00 0.00 0.00 24 1018.0
20260504180558 24 0 3.2 11.3 0.00 0.00 0.00 24 1017.9
20260504175556 23 0 0.0 12.9 0.00 0.00 0.00 25 1018.0
20260504175055 22 0 4.8 12.9 0.00 0.00 0.00 24 1017.9
20260504174557 23 0 6.4 12.9 0.00 0.00 0.00 24 1018.0
20260504174055 23 0 0.0 9.7 0.00 0.00 0.00 26 1018.0
20260504173555 23 0 1.6 9.7 0.00 0.00 0.00 25 1017.9
20260504173053 22 35 3.2 9.7 0.00 0.00 0.00 26 1017.9
20260504172555 22 62 1.6 9.7 0.00 0.00 0.00 27 1018.0
20260504172056 22 0 4.8 9.7 0.00 0.00 0.00 26 1018.0
20260504171556 22 21 3.2 9.7 0.00 0.00 0.00 27 1018.1
20260504171056 22 1 1.6 9.7 0.00 0.00 0.00 26 1018.2
20260504170558 22 27 0.0 12.9 0.00 0.00 0.00 25 1018.0
20260504151056 20 158 4.8 16.1 0.00 0.00 0.00 34 1018.4
20260504150555 20 0 0.0 16.1 0.00 0.00 0.00 35 1018.4
20260504141055 18 176 8.0 16.1 0.00 0.00 0.00 36 1018.4
20260504140555 18 153 6.4 11.3 0.00 0.00 0.00 40 1018.4
20260504130554 14 0 0.0 0.0 0.00 0.00 0.00 54 1017.5
20260504110555 16 0 0.0 9.7 0.00 0.00 0.00 42 1016.9
20260504100557 16 0 0.0 0.0 0.00 0.00 0.00 43 1016.5
20260504090112 16 0 0.0 0.0 0.00 0.00 0.00 44 1016.7
20260504081557 16 0 0.0 8.0 0.00 0.00 0.00 41 1017.1
20260504081057 16 0 0.0 9.7 0.00 0.00 0.00 41 1017.1
20260504080555 15 0 1.6 9.7 0.00 0.00 0.00 41 1017.1
20260504050555 20 0 4.8 11.3 0.00 0.00 0.00 28 1017.2
20260504045557 20 217 0.0 12.9 0.00 0.00 0.00 28 1016.8
20260504045056 20 236 1.6 12.9 0.00 0.00 0.00 26 1016.8
20260504044611 20 234 3.2 11.3 0.00 0.00 0.00 27 1017.0
20260504044056 20 245 3.2 11.3 0.00 0.00 0.00 27 1017.0
20260504043555 20 246 1.6 11.3 0.00 0.00 0.00 26 1016.9
20260504043055 20 241 0.0 11.3 0.00 0.00 0.00 27 1016.9
20260504042552 20 232 0.0 9.7 0.00 0.00 0.00 26 1016.6
20260504042052 20 323 0.0 11.3 0.00 0.00 0.00 26 1016.6
20260504041557 20 0 1.6 11.3 0.00 0.00 0.00 27 1016.5
20260504041052 20 243 1.6 8.0 0.00 0.00 0.00 27 1016.4
20260504040552 20 0 0.0 8.0 0.00 0.00 0.00 28 1016.6
20260504040113 21 244 0.0 8.0 0.00 0.00 0.00 27 1016.6
20260504035557 21 242 0.0 9.7 0.00 0.00 0.00 28 1016.6
20260504035053 21 0 1.6 9.7 0.00 0.00 0.00 28 1016.7
20260504034617 20 0 0.0 4.8 0.00 0.00 0.00 29 1016.5
20260504034053 21 0 0.0 8.0 0.00 0.00 0.00 29 1016.5
20260504033558 21 0 0.0 8.0 0.00 0.00 0.00 29 1016.3
20260504033101 21 243 0.0 8.0 0.00 0.00 0.00 28 1016.0
20260504032555 21 0 1.6 11.3 0.00 0.00 0.00 28 1016.0
20260504032055 21 0 3.2 11.3 0.00 0.00 0.00 27 1016.2
20260504031553 21 0 1.6 11.3 0.00 0.00 0.00 27 1016.2
20260504031054 21 254 1.6 11.3 0.00 0.00 0.00 27 1016.1
20260504030558 21 277 1.6 9.7 0.00 0.00 0.00 27 1016.1
20260504030056 21 0 0.0 8.0 0.00 0.00 0.00 29 1016.0
20260504025556 21 0 0.0 8.0 0.00 0.00 0.00 29 1015.9
20260504025056 21 0 0.0 6.4 0.00 0.00 0.00 28 1015.9
20260504024558 21 0 0.0 6.4 0.00 0.00 0.00 28 1015.9
20260504024055 22 0 0.0 0.0 0.00 0.00 0.00 29 1015.8
20260504023552 22 0 0.0 0.0 0.00 0.00 0.00 27 1015.9
20260504023054 22 0 0.0 0.0 0.00 0.00 0.00 28 1015.8
20260504022553 22 0 0.0 0.0 0.00 0.00 0.00 28 1015.7
20260504022058 22 0 0.0 0.0 0.00 0.00 0.00 29 1015.5
20260504021553 22 0 0.0 0.0 0.00 0.00 0.00 29 1015.5
20260504021055 22 0 0.0 0.0 0.00 0.00 0.00 29 1015.6
20260504020553 22 0 0.0 0.0 0.00 0.00 0.00 28 1015.6
20260504020053 22 0 0.0 1.6 0.00 0.00 0.00 28 1015.5
20260504015552 23 0 0.0 1.6 0.00 0.00 0.00 27 1015.4
20260504015055 23 0 0.0 1.6 0.00 0.00 0.00 27 1015.2
20260504014554 23 0 0.0 0.0 0.00 0.00 0.00 27 1015.3
20260504014055 24 0 0.0 1.6 0.00 0.00 0.00 26 1015.4
20260504013554 24 0 0.0 1.6 0.00 0.00 0.00 26 1015.4
20260504013111 25 0 0.0 11.3 0.00 0.00 0.00 25 1015.5
20260504012555 25 0 0.0 24.1 0.00 0.00 0.00 25 1015.2
20260504012055 25 0 9.7 24.1 0.00 0.00 0.00 25 1015.4
20260504011555 25 0 0.0 16.1 0.00 0.00 0.00 24 1015.4
20260504011054 25 188 3.2 16.1 0.00 0.00 0.00 24 1015.4
20260504010555 25 0 3.2 16.1 0.00 0.00 0.00 24 1015.4
20260504010101 25 0 0.0 12.9 0.00 0.00 0.00 24 1015.4
20260504005554 25 0 0.0 12.9 0.00 0.00 0.00 25 1015.4
20260504005053 25 0 0.0 4.8 0.00 0.00 0.00 25 1015.5
20260504004607 25 0 0.0 4.8 0.00 0.00 0.00 25 1015.5
20260504004053 25 0 0.0 0.0 0.00 0.00 0.00 24 1015.5
20260504003552 25 0 0.0 17.7 0.00 0.00 0.00 24 1015.4
20260504003058 25 0 1.6 20.9 0.00 0.00 0.00 24 1015.4
20260504002553 25 204 11.3 22.5 0.00 0.00 0.00 24 1015.4
20260504002055 25 0 12.9 22.5 0.00 0.00 0.00 24 1015.5
20260504001558 25 164 12.9 22.5 0.00 0.00 0.00 24 1015.5
20260504001055 26 184 6.4 22.5 0.00 0.00 0.00 24 1015.3
20260504000555 26 171 9.7 20.9 0.00 0.00 0.00 24 1015.3
20260504000125 26 0 0.0 8.0 0.00 0.00 0.00 25 1015.3
20260503235554 26 0 0.0 9.7 0.00 0.00 0.00 25 1015.4
20260503235056 26 0 0.0 9.7 0.00 0.00 0.00 24 1015.5